GFSSE_prec_cthk_045.txt.gz
RH
74 65 62 59 57 55 52 47 42 37 37 36 34 31 27 24 21 20 19 19 17 15 14 15 16 16 16 15 15 14 14 14 15 15 17 19 20 23 25 29 37 37 31
72 67 63 63 61 57 51 44 38 37 38 39 34 29 24 18 16 16 16 15 13 13 14 15 15 14 13 13 13 12 12 12 13 16 23 37 51 28 28 28 28 27 29
77 71 68 64 63 53 49 43 38 40 41 37 30 24 17 14 14 15 14 14 15 16 15 16 16 16 16 15 15 16 16 16 16 22 28 52 47 28 31 30 28 28 30
84 75 75 69 58 51 50 44 41 42 36 28 21 16 12 12 14 15 17 18 17 18 20 21 21 20 20 20 20 19 19 18 21 30 45 47 47 40 40 34 34 29 30
83 78 78 64 56 52 52 43 41 38 25 20 17 12 11 14 17 19 19 19 21 23 23 23 23 23 23 23 22 22 22 22 27 36 42 33 54 31 34 35 33 25 25
94 89 72 62 57 56 49 39 35 23 18 15 12 12 14 18 20 21 22 24 26 26 26 26 26 26 25 23 23 23 23 25 33 36 39 41 28 27 26 24 23 24 26
93 86 70 63 60 60 45 34 24 16 13 14 16 17 20 23 23 25 27 28 29 30 30 29 29 27 26 25 26 26 25 25 32 33 35 36 27 28 29 29 28 27 28
90 85 75 68 63 42 32 25 16 15 15 19 19 23 25 26 28 29 30 32 33 37 37 36 36 33 31 30 30 30 31 33 40 38 36 35 26 25 25 25 27 29 30
90 82 76 67 47 31 24 16 13 15 20 22 25 28 30 31 31 33 35 35 38 40 41 43 41 38 35 35 34 33 33 36 42 45 46 40 32 30 29 28 27 26 27
90 87 70 50 41 25 17 13 13 18 22 26 31 34 34 33 35 39 40 42 41 41 43 43 44 43 41 38 37 36 36 39 41 46 49 43 37 35 32 31 30 29 29
89 70 58 48 39 28 17 13 15 21 27 32 35 36 41 46 49 53 46 46 42 43 43 44 45 44 43 45 43 41 41 42 42 45 44 39 37 35 34 32 30 30 31
65 52 45 39 37 31 26 15 23 26 35 42 45 43 57 57 61 59 49 48 47 46 46 48 48 50 52 53 50 45 46 43 44 44 43 37 37 35 33 33 32 29 27
45 38 33 29 24 22 22 29 33 37 44 50 50 58 61 59 62 64 71 71 67 61 67 62 62 61 52 49 49 48 47 46 45 43 44 38 34 32 30 29 28 27 27
33 33 27 25 22 22 22 32 39 49 51 57 57 63 68 68 74 77 84 84 75 76 69 67 65 57 54 51 49 49 49 47 47 45 44 38 33 29 27 24 22 22 22
37 31 25 23 22 26 34 40 47 53 56 62 74 79 76 78 81 82 81 81 78 74 73 69 65 60 56 55 53 52 51 49 48 47 43 37 31 25 22 19 18 17 17
40 35 31 33 35 38 42 49 53 57 63 71 78 81 86 84 84 84 87 81 78 73 71 68 61 59 57 57 54 51 49 45 41 38 35 32 27 25 21 18 16 15 15
50 49 44 45 46 53 60 64 67 67 70 81 83 77 80 87 87 86 81 74 72 69 64 61 60 57 54 51 47 42 39 35 33 32 31 29 29 27 24 18 16 14 14
60 62 64 65 69 70 72 76 76 77 78 81 83 81 82 86 86 80 73 69 63 58 57 56 52 47 43 39 35 33 30 26 26 26 28 35 34 28 25 25 19 14 12
64 66 68 72 74 76 82 86 83 84 83 82 84 80 81 75 68 63 54 49 52 52 52 50 45 42 38 34 30 30 28 28 33 31 28 36 38 35 36 25 25 16 16
62 67 69 71 72 79 83 84 80 75 74 71 69 66 67 63 55 54 55 55 56 56 53 48 42 36 34 32 33 35 32 31 29 34 39 40 39 38 38 38 34 35 31
66 68 71 70 68 78 76 65 64 71 67 60 61 61 61 59 60 59 61 60 57 51 46 45 42 38 36 34 33 33 34 34 31 36 36 44 43 41 41 39 38 39 38
62 65 66 69 74 73 69 66 66 62 64 69 71 69 68 65 65 67 66 61 56 51 47 44 39 40 39 37 38 38 39 37 36 40 46 48 47 42 42 44 43 45 44
62 66 73 74 67 65 60 61 62 65 66 68 69 68 67 67 66 62 60 57 51 43 42 43 45 47 47 46 47 48 45 45 45 45 40 40 45 48 47 47 48 48 50
67 69 71 63 57 57 59 63 66 67 68 68 71 68 68 69 66 65 60 51 48 50 49 54 53 53 51 52 51 54 50 52 50 47 49 48 45 44 50 50 49 49 54
63 59 60 58 60 64 61 62 66 68 70 71 71 72 76 72 68 62 60 58 56 55 58 56 55 54 53 51 55 57 57 62 64 64 56 59 57 54 55 58 55 59 56
58 61 59 59 62 62 61 62 65 68 68 69 69 74 74 68 63 62 62 60 59 60 58 55 53 51 51 57 60 64 69 67 63 63 62 59 61 52 61 64 65 64 61

GFSSE_prec_cthk_048.txt.gz
RH
65 57 54 54 54 55 54 53 49 40 33 32 30 28 24 21 18 17 16 14 12 11 11 12 12 13 12 12 11 11 12 12 13 16 23 31 35 34 23 28 30 28 27
72 64 61 60 57 56 56 56 48 39 34 33 31 25 21 16 15 15 14 12 12 13 14 13 13 13 13 14 14 15 15 16 17 26 33 41 46 37 26 28 30 28 29
77 69 66 63 58 58 58 54 46 37 35 34 27 21 17 13 14 15 14 15 15 15 15 16 17 18 18 18 18 18 18 22 30 40 43 54 70 45 34 34 28 28 27
78 73 70 66 60 62 57 50 44 37 35 29 22 17 13 13 14 16 17 17 18 18 19 20 20 21 21 21 21 21 21 25 32 43 49 47 48 38 32 30 31 28 24
84 77 75 71 70 67 56 48 42 39 33 20 17 12 11 14 17 19 20 20 21 22 22 22 23 23 23 22 21 22 25 30 36 42 43 40 38 28 25 24 23 21 23
87 84 83 81 72 65 50 47 39 32 19 17 11 11 15 19 22 22 23 25 25 25 28 29 29 28 27 25 24 24 25 31 33 40 38 37 28 25 26 27 27 26 24
90 93 87 86 75 67 51 44 31 17 13 10 12 15 19 22 24 25 26 27 27 29 32 35 35 34 32 30 29 30 31 34 38 39 36 33 26 26 25 24 24 26 28
94 91 89 82 74 63 51 37 22 14 11 14 16 20 24 25 26 27 29 30 32 33 34 37 39 38 38 36 35 34 34 38 42 46 45 43 39 32 30 27 27 27 26
93 90 89 78 69 62 42 24 14 11 13 17 20 25 27 28 28 30 33 36 37 37 37 39 40 39 39 37 36 36 36 37 38 45 44 43 42 36 34 31 30 29 29
89 94 83 77 63 45 32 25 14 12 17 20 25 28 30 30 32 35 39 40 41 39 40 41 41 42 42 46 46 42 40 39 39 43 39 40 39 37 36 34 33 30 29
95 82 72 57 47 34 23 18 13 16 20 25 29 33 37 40 44 46 45 45 41 42 44 46 47 49 52 54 51 46 43 40 40 40 35 36 37 37 36 33 32 32 30
86 75 59 47 34 27 17 14 15 19 26 31 34 43 50 54 56 53 56 57 57 56 55 60 58 59 57 57 55 49 46 43 41 40 38 37 36 34 33 31 30 28 26
69 53 50 40 35 34 21 21 20 28 37 41 42 55 60 52 61 68 76 79 82 74 71 67 65 63 60 56 51 48 45 44 42 42 41 40 38 35 33 29 26 23 22
46 40 35 30 30 32 26 27 30 36 41 45 49 52 56 64 76 78 81 77 78 77 78 70 68 63 60 55 54 51 51 49 46 43 41 39 38 34 31 27 24 19 18
35 30 25 23 24 26 34 31 41 49 51 66 70 68 77 78 79 79 81 80 78 75 71 68 65 62 57 52 52 51 50 47 43 40 38 36 32 29 25 22 21 18 15
33 28 27 25 27 35 34 37 43 50 55 60 64 72 79 79 79 81 82 82 78 75 68 66 61 53 50 48 45 43 43 40 37 33 31 31 27 25 26 25 21 19 17
39 38 38 40 43 42 43 45 52 60 62 65 67 73 75 76 79 81 83 80 78 71 62 53 51 47 45 42 39 37 36 34 28 24 25 26 27 31 29 28 27 23 20
51 50 51 52 53 55 59 68 69 67 73 72 66 70 71 71 75 81 82 73 61 52 47 47 48 47 43 38 33 30 31 29 26 27 29 27 32 37 38 38 37 31 25
55 59 61 62 65 68 75 76 79 76 72 64 63 64 65 66 67 64 58 52 49 48 47 47 44 39 35 32 29 29 30 29 30 29 32 35 38 42 43 41 40 39 36
58 60 66 69 75 70 70 72 74 68 66 61 62 63 60 60 53 51 48 50 53 52 48 46 43 39 36 35 35 36 36 36 34 35 39 44 46 48 46 45 43 41 40
54 57 63 66 67 67 68 72 63 57 60 60 59 51 49 48 48 54 56 56 57 56 54 51 47 45 42 41 42 39 38 38 39 37 39 38 42 45 44 44 44 42 40
54 57 63 64 66 71 75 63 52 55 55 51 48 49 53 55 59 61 62 61 57 55 51 47 45 44 45 47 43 41 41 38 38 37 37 37 40 43 46 48 46 45 44
58 58 63 68 69 69 66 54 53 52 49 50 54 57 61 63 62 62 62 57 55 51 48 46 45 47 45 42 41 45 42 40 37 37 35 32 34 38 41 41 46 46 46
59 64 65 66 63 63 58 54 52 52 52 60 61 61 62 62 64 66 63 57 53 51 46 44 46 44 42 42 40 39 38 42 43 39 41 39 41 39 35 40 42 43 48
56 57 62 64 58 60 56 56 58 61 64 67 70 69 68 66 66 65 58 57 54 50 47 47 46 44 39 39 40 40 44 53 52 56 52 51 44 47 41 43 49 48 48
53 59 62 56 58 58 58 60 60 62 65 66 65 64 64 69 71 65 59 58 53 49 46 47 44 40 38 40 41 43 56 63 62 65 61 53 48 41 42 46 44 48 52

GFSSE_prec_cthk_051.txt.gz
RH
67 62 57 56 62 63 60 55 48 44 39 35 31 20 17 14 13 12 12 10 9 11 11 11 11 11 11 12 12 12 13 14 24 25 38 54 44 43 33 28 27 25 25
75 68 63 63 68 67 63 55 49 46 41 37 26 18 13 11 11 11 11 12 12 13 13 14 15 15 15 15 15 16 24 28 31 31 39 49 58 54 40 33 28 26 27
78 74 70 68 68 68 66 54 51 49 43 32 22 14 10 9 11 12 14 14 14 16 17 17 17 17 18 17 17 19 29 36 35 37 37 50 51 45 32 31 27 28 26
80 76 74 72 70 70 64 60 54 51 38 26 16 11 8 10 13 15 15 16 17 19 19 19 20 20 20 20 19 24 30 32 37 36 36 40 38 32 23 24 24 23 23
80 78 78 73 71 68 68 65 57 49 31 19 14 9 8 13 16 17 18 20 20 21 21 23 25 26 26 24 24 28 31 33 34 38 38 35 28 23 23 25 27 26 25
83 79 77 75 74 70 70 64 57 40 22 17 12 7 11 16 17 19 21 21 22 24 27 27 29 32 31 30 29 30 32 35 35 36 36 35 31 26 25 25 25 25 27
95 89 82 84 78 77 72 58 46 23 15 13 8 11 16 19 20 22 23 23 26 29 32 33 33 34 35 34 35 35 37 40 42 39 40 41 41 37 31 28 26 28 28
98 95 91 88 83 79 64 51 33 21 14 10 11 17 20 21 23 24 25 27 29 33 36 36 37 38 37 35 34 34 36 40 40 38 39 39 40 39 35 34 31 29 27
94 92 89 87 85 71 52 39 24 14 11 12 17 20 22 24 25 26 28 30 32 37 36 37 39 42 42 45 44 41 39 42 42 38 37 38 37 36 36 35 34 32 31
94 90 90 90 80 63 43 28 15 13 15 18 22 24 26 26 27 30 31 34 37 37 37 45 48 48 52 51 49 47 43 45 44 40 39 37 35 35 34 33 31 30 31
95 96 86 83 67 52 43 36 28 24 18 26 26 28 28 30 35 37 41 44 43 44 51 57 58 58 58 56 51 47 45 43 44 42 39 39 38 36 33 32 30 28 26
83 88 81 57 48 38 25 21 18 17 21 24 29 31 31 36 39 46 57 62 67 68 70 69 67 66 61 60 56 51 46 44 42 41 40 41 40 37 35 32 30 27 25
70 72 57 43 37 24 18 15 16 18 22 28 32 36 38 42 48 63 74 74 76 74 69 70 65 63 60 58 54 47 46 44 42 43 41 39 39 39 36 31 28 27 26
71 58 43 39 32 24 18 17 19 22 28 31 39 47 51 56 65 71 77 77 76 73 72 69 67 64 59 55 51 48 47 45 44 43 40 38 36 33 33 28 26 24 24
48 42 37 33 30 26 22 25 28 31 39 40 44 52 58 67 77 72 75 80 81 79 78 72 67 58 52 48 42 40 41 40 40 38 37 34 32 31 27 26 25 24 22
34 28 27 23 27 28 30 31 36 41 47 55 58 62 65 68 73 75 79 79 80 83 79 67 55 46 40 40 39 37 34 34 34 32 33 30 28 28 28 29 28 27 26
30 23 25 28 33 34 40 43 55 62 61 61 65 67 66 69 70 73 74 74 78 76 64 46 41 42 41 36 33 30 31 30 28 28 26 29 29 29 33 35 34 33 32
39 35 34 38 43 49 52 61 64 66 67 65 62 61 63 63 68 71 67 65 56 49 41 41 42 40 35 32 31 31 30 29 29 28 29 30 31 35 40 41 41 41 40
47 40 44 50 55 59 67 69 70 68 68 64 65 65 62 61 57 53 51 48 42 41 42 42 39 35 35 34 32 32 31 32 33 34 38 39 43 46 47 46 45 44 44
50 58 57 58 61 62 65 62 66 70 64 60 59 58 53 50 45 44 45 41 41 44 44 41 41 43 41 37 36 38 39 38 40 42 42 43 45 49 47 46 44 43 42
50 53 59 66 66 57 61 65 70 63 56 55 55 50 48 44 40 42 44 47 48 48 47 46 43 42 40 37 37 37 34 35 36 34 33 34 35 37 39 41 42 41 40
46 52 54 61 59 62 65 67 63 54 49 51 50 47 43 42 46 50 51 51 54 53 51 44 41 39 36 37 35 32 32 30 32 33 30 30 32 34 35 39 42 44 44
48 51 57 57 60 61 67 64 54 53 50 48 42 43 47 50 53 54 54 56 55 54 50 45 39 36 37 36 36 36 37 37 32 31 31 32 30 32 32 33 35 37 40
50 58 58 58 60 62 64 55 53 46 43 43 48 51 53 54 53 53 56 59 58 53 47 42 40 38 40 39 37 36 35 36 37 36 41 43 41 40 36 32 32 33 34
54 56 58 57 56 60 54 57 52 50 50 49 52 55 57 59 61 58 60 58 56 49 45 45 45 41 43 41 40 41 41 41 40 41 43 46 47 45 43 41 38 35 38
53 55 53 54 54 56 57 56 57 53 54 55 57 62 66 67 67 65 64 63 55 48 49 47 40 43 42 41 41 43 44 47 47 48 55 50 51 48 48 43 47 37 33

GFSSE_prec_cthk_057.txt.gz
RH
61 61 64 67 68 65 62 60 57 55 50 46 42 33 23 19 14 9 8 8 10 12 13 13 13 15 18 20 23 24 27 31 32 36 44 42 31 28 26 26 23 24 25
62 63 64 67 67 64 63 60 61 62 56 48 40 29 19 17 9 9 10 12 14 15 16 16 16 19 21 23 25 29 31 30 30 30 27 24 24 22 19 19 20 20 20
60 67 69 71 73 71 65 63 62 64 56 47 38 27 18 16 11 11 13 15 16 16 17 17 18 20 22 25 28 29 28 29 27 26 25 24 22 20 19 18 19 19 19
65 71 72 74 76 73 66 65 69 64 56 44 38 24 20 15 12 13 15 17 17 17 17 19 21 23 24 26 26 28 30 28 27 29 30 30 28 26 22 21 19 19 20
68 71 72 76 75 74 70 68 68 69 53 44 35 23 25 17 13 15 17 18 19 21 22 25 26 26 28 27 28 29 31 32 31 32 33 33 33 33 29 26 23 21 21
78 76 76 78 85 71 78 74 73 62 49 43 31 25 25 20 21 18 19 20 21 24 26 29 29 29 30 31 31 32 32 33 34 32 30 31 32 31 30 31 29 27 25
77 77 80 91 92 84 84 80 68 56 51 40 35 31 28 25 18 21 19 21 23 26 29 31 32 30 30 32 34 37 37 36 34 33 33 32 31 31 29 29 30 29 28
84 84 88 97 93 89 93 81 65 62 46 30 32 30 24 24 23 20 22 24 27 29 32 32 32 38 41 43 44 45 44 41 39 36 35 33 31 30 29 28 28 28 27
93 97 96 94 97 96 89 76 64 43 31 25 20 22 23 23 22 24 24 27 29 33 35 37 44 50 51 52 50 50 46 42 39 38 37 36 34 33 31 29 27 26 24
88 90 92 95 94 90 78 60 37 28 32 36 30 25 25 25 26 25 28 32 34 42 46 53 57 56 57 57 55 51 46 41 38 38 36 35 36 33 30 30 30 27 25
93 92 94 94 88 86 71 50 38 32 28 29 27 26 27 27 31 34 35 36 45 50 57 65 63 61 61 60 56 48 42 40 38 36 33 32 34 33 31 29 29 27 24
97 92 94 90 82 76 56 40 28 27 30 30 32 32 34 38 39 34 40 50 57 63 68 70 69 66 66 62 55 43 38 34 33 33 32 32 31 32 31 30 28 27 26
95 96 88 81 74 72 57 48 42 36 30 32 38 38 39 39 43 50 52 57 64 67 71 72 70 67 66 64 55 46 38 34 32 31 31 31 30 31 29 29 30 30 29
83 79 71 74 62 52 40 28 26 28 30 32 35 36 38 47 51 55 59 61 67 68 73 73 67 67 60 56 51 37 32 30 28 27 27 28 29 29 31 29 31 33 32
72 72 66 53 51 41 28 23 19 23 28 33 40 48 50 53 57 59 59 64 65 69 68 65 63 61 54 44 36 34 29 25 24 24 24 25 27 28 30 34 37 40 39
66 64 52 36 33 23 21 19 22 29 33 46 56 55 58 58 61 60 64 63 63 65 61 63 64 54 41 34 32 29 27 25 25 24 23 23 25 28 33 36 39 41 42
46 42 36 36 31 26 28 30 37 45 53 56 56 57 62 58 57 63 65 59 64 62 60 60 49 40 36 33 31 30 28 27 27 26 27 27 28 30 35 34 35 38 39
43 49 52 46 45 45 46 54 57 63 59 60 61 63 60 56 56 60 58 57 59 59 53 40 39 38 36 35 34 32 30 30 29 30 30 32 33 35 38 39 40 41 41
45 46 48 48 49 53 55 59 62 61 60 65 65 57 53 53 55 53 56 54 50 41 40 41 42 40 39 37 35 35 33 32 33 33 32 33 36 39 41 40 40 40 41
49 52 53 51 55 59 58 59 62 65 67 65 59 52 48 51 51 51 47 41 41 41 43 44 44 43 39 37 35 34 30 32 35 33 35 36 37 38 39 40 40 40 39
52 53 47 47 52 57 59 60 61 64 63 60 57 54 53 49 46 42 40 40 40 43 46 46 46 43 41 42 41 34 34 37 37 39 38 37 40 38 38 38 37 36 35
50 52 50 48 52 56 62 59 61 60 63 62 60 56 49 45 41 41 40 42 45 44 44 46 48 48 47 50 47 39 42 44 47 46 43 44 46 46 44 41 41 40 38
44 47 48 52 54 61 66 64 62 63 65 64 58 52 47 45 42 41 44 47 48 50 52 59 59 55 56 60 56 56 48 46 45 43 45 50 52 48 45 44 45 45 43
46 54 55 58 65 69 69 69 61 63 65 59 55 52 49 44 43 47 51 54 57 58 59 62 59 61 64 66 64 53 49 48 49 47 51 55 51 46 48 46 49 50 50
59 56 59 67 65 73 70 70 63 64 65 55 56 54 47 46 50 57 61 65 69 74 69 66 68 71 71 68 51 42 43 48 52 55 53 53 51 49 46 50 52 55 53
60 59 62 66 61 70 71 69 64 66 56 56 56 51 50 56 62 68 75 78 85 90 85 80 74 71 69 55 50 44 47 54 56 56 55 56 57 55 53 50 54 58 54

GFSSE_prec_cthk_060.txt.gz
RH
64 68 70 65 63 62 58 56 58 59 57 53 47 41 34 26 21 16 8 8 10 12 12 14 15 18 20 23 26 29 30 29 26 24 23 21 21 20 18 18 18 19 22
65 73 73 70 66 64 60 55 56 58 54 52 44 36 31 21 19 11 11 12 13 14 14 17 20 21 23 28 29 28 30 26 24 23 23 20 19 18 18 18 19 18 18
72 74 74 73 72 70 64 56 55 54 61 53 40 37 29 20 21 15 14 14 15 16 16 18 19 21 26 27 27 26 25 25 25 25 25 25 24 22 20 20 18 18 20
69 71 74 75 74 73 67 60 58 61 56 51 38 38 27 22 23 16 15 16 16 17 20 21 23 24 26 27 26 28 28 28 27 27 27 27 27 26 26 24 22 20 20
69 72 75 76 77 75 71 66 62 64 54 48 39 40 26 23 24 18 19 18 20 21 23 26 27 28 28 29 30 30 30 29 28 28 28 28 29 27 25 26 25 24 24
79 83 83 84 85 82 80 77 71 68 53 50 43 34 29 31 27 20 28 22 24 24 26 28 30 30 30 32 34 35 38 36 34 32 29 28 28 27 25 25 25 25 24
76 81 88 87 89 89 86 85 75 65 58 43 45 36 35 37 26 31 29 27 24 25 28 29 30 31 37 43 44 44 43 40 38 35 34 32 30 29 27 26 24 23 23
78 85 92 94 94 92 96 89 72 64 49 49 43 41 41 36 32 28 28 26 28 30 31 32 36 41 46 49 50 49 45 41 39 36 34 33 32 30 28 27 25 24 22
83 96 93 97 95 98 92 77 70 65 61 45 43 41 36 35 33 28 26 28 32 34 39 44 46 53 54 54 53 52 46 41 38 35 34 32 30 29 26 26 25 24 22
83 87 94 98 99 93 88 83 73 58 43 37 33 32 35 32 26 27 30 34 37 44 48 51 57 61 62 63 58 54 47 40 34 29 27 26 27 27 25 23 23 21 20
82 88 91 98 95 88 84 76 55 44 43 46 41 38 35 31 29 31 33 38 46 52 55 62 64 65 64 62 59 53 48 40 34 29 27 27 26 26 23 22 22 21 21
85 94 99 96 92 84 72 58 51 44 41 40 38 33 32 35 32 34 39 41 46 59 66 68 67 66 65 62 58 50 47 41 34 28 27 26 26 25 24 22 23 23 23
90 95 95 93 86 68 61 51 40 33 38 39 39 38 39 41 45 47 47 52 61 64 66 66 65 64 62 56 52 41 38 35 31 27 25 25 25 28 29 27 27 28 27
91 84 88 86 78 71 66 55 49 39 37 42 46 47 45 45 45 51 64 66 63 66 63 63 60 60 60 52 43 34 32 30 26 24 24 24 25 24 28 29 31 32 32
89 74 69 69 70 59 55 45 35 31 36 38 40 42 48 52 57 67 71 65 61 62 61 61 57 57 52 44 33 28 27 27 25 24 24 24 23 24 28 32 32 33 34
68 67 61 61 52 42 30 25 24 23 30 38 52 62 63 59 59 67 65 65 62 61 61 59 57 53 42 35 30 30 29 28 27 26 25 24 23 25 27 28 30 32 34
60 51 39 39 35 29 23 23 24 30 44 57 63 64 61 61 68 65 65 62 58 58 61 59 51 38 35 35 33 32 30 29 27 27 27 26 27 28 30 31 32 33 36
48 51 49 47 45 40 38 41 47 57 61 63 59 57 64 63 61 57 60 57 55 56 57 47 37 38 39 37 37 34 30 29 29 29 27 28 30 32 33 34 34 36 38
56 54 52 52 51 49 49 52 56 57 60 62 61 69 58 56 56 56 55 54 59 53 40 39 42 43 41 40 36 33 31 31 31 29 31 31 32 35 36 38 39 40 41
50 49 53 53 49 49 50 55 57 57 64 65 68 63 59 54 52 55 56 54 45 39 41 44 44 42 40 37 35 35 33 36 36 34 40 41 39 38 37 36 36 38 40
51 52 51 53 55 56 57 57 58 61 66 65 66 62 60 56 56 53 53 43 41 43 45 46 44 46 45 43 44 41 41 44 43 47 48 45 43 43 41 41 42 44 44
45 46 48 49 52 57 56 59 57 60 63 68 67 64 63 62 56 53 46 43 43 46 47 48 50 50 52 53 51 48 47 50 50 49 43 44 49 51 50 50 51 50 50
44 47 49 51 54 56 58 59 60 61 65 66 68 67 65 62 55 48 44 43 46 49 51 56 59 61 61 61 65 63 54 49 46 46 47 51 54 56 54 52 50 52 53
52 52 53 54 56 61 63 62 66 67 66 69 75 65 64 58 53 48 46 48 54 60 66 70 77 78 82 78 76 70 65 56 49 47 48 52 55 54 54 51 50 48 50
60 63 61 64 63 63 61 69 73 79 78 74 73 66 62 58 53 49 52 59 66 71 75 87 87 83 86 80 73 63 58 56 56 57 55 56 57 55 55 54 53 54 55
59 67 65 63 66 66 65 72 81 81 78 77 72 61 63 59 52 56 66 71 73 80 88 96 96 88 89 79 70 65 57 57 59 62 60 55 55 56 57 57 57 58 58